TimeCST,TemperatureF,Dew PointF,Humidity,Sea Level PressureIn,VisibilityMPH,Wind Direction,Wind SpeedMPH,Gust SpeedMPH,PrecipitationIn,Events,Conditions,WindDirDegrees,DateUTC
12:15 AM,42.8,41.0,93,30.29,3.0,North,-9999.0,-,N/A,,Mostly Cloudy,0,2012-12-01 06:15:00
12:35 AM,42.8,41.0,93,30.29,3.0,North,-9999.0,-,N/A,,Mostly Cloudy,0,2012-12-01 06:35:00
12:55 AM,41.0,39.2,93,30.29,3.0,North,-9999.0,-,N/A,,Overcast,0,2012-12-01 06:55:00
1:15 AM,41.0,39.2,93,30.29,3.0,North,-9999.0,-,N/A,,Mostly Cloudy,0,2012-12-01 07:15:00
1:35 AM,41.0,39.2,93,30.30,3.0,North,-9999.0,-,N/A,,Scattered Clouds,0,2012-12-01 07:35:00
1:55 AM,41.0,39.2,93,30.30,3.0,North,-9999.0,-,N/A,,Mostly Cloudy,0,2012-12-01 07:55:00
2:15 AM,39.2,37.4,93,30.30,3.0,North,-9999.0,-,N/A,,Mostly Cloudy,0,2012-12-01 08:15:00
2:35 AM,39.2,37.4,93,30.30,2.5,North,-9999.0,-,N/A,,Mostly Cloudy,0,2012-12-01 08:35:00
2:55 AM,39.2,37.4,93,30.30,3.0,North,-9999.0,-,N/A,,Overcast,0,2012-12-01 08:55:00
3:35 AM,39.2,37.4,93,30.29,2.5,North,-9999.0,-,N/A,,Overcast,0,2012-12-01 09:35:00
3:55 AM,39.2,37.4,93,30.30,2.5,North,-9999.0,-,N/A,,Overcast,0,2012-12-01 09:55:00
4:15 AM,39.2,37.4,93,30.30,3.0,North,-9999.0,-,N/A,,Overcast,0,2012-12-01 10:15:00
4:35 AM,37.4,37.4,100,30.31,1.0,North,-9999.0,-,N/A,,Overcast,0,2012-12-01 10:35:00
4:55 AM,39.2,37.4,93,30.31,1.5,North,-9999.0,-,N/A,,Overcast,0,2012-12-01 10:55:00
5:15 AM,39.2,37.4,93,30.31,2.0,North,-9999.0,-,N/A,,Overcast,0,2012-12-01 11:15:00
5:35 AM,37.4,37.4,100,30.31,1.5,North,-9999.0,-,N/A,,Overcast,0,2012-12-01 11:35:00
5:55 AM,39.2,37.4,93,30.32,0.8,North,-9999.0,-,N/A,,Overcast,0,2012-12-01 11:55:00
6:15 AM,37.4,37.4,100,30.32,2.5,North,-9999.0,-,N/A,,Overcast,0,2012-12-01 12:15:00
6:35 AM,37.4,37.4,100,30.33,1.8,North,-9999.0,-,N/A,,Overcast,0,2012-12-01 12:35:00
6:55 AM,39.2,37.4,93,30.34,0.5,North,-9999.0,-,N/A,Fog,Fog,0,2012-12-01 12:55:00
7:15 AM,39.2,39.2,100,30.35,0.2,North,-9999.0,-,N/A,Fog,Fog,0,2012-12-01 13:15:00
7:35 AM,41.0,39.2,93,30.35,1.2,North,-9999.0,-,N/A,,Overcast,0,2012-12-01 13:35:00
7:55 AM,44.6,42.8,93,30.35,1.5,North,-9999.0,-,N/A,,Scattered Clouds,0,2012-12-01 13:55:00
8:15 AM,46.4,44.6,93,30.35,1.8,North,-9999.0,-,N/A,,Clear,0,2012-12-01 14:15:00
8:35 AM,48.2,44.6,87,30.36,2.0,North,-9999.0,-,N/A,,Clear,0,2012-12-01 14:35:00
8:55 AM,50.0,46.4,87,30.36,2.5,North,-9999.0,-,N/A,,Clear,0,2012-12-01 14:55:00
9:15 AM,51.8,46.4,82,30.36,2.5,North,-9999.0,-,N/A,,Haze,0,2012-12-01 15:15:00
9:35 AM,53.6,46.4,77,30.35,2.5,North,-9999.0,-,N/A,,Haze,0,2012-12-01 15:35:00
9:55 AM,55.4,46.4,72,30.36,2.5,North,-9999.0,-,N/A,,Haze,0,2012-12-01 15:55:00
10:15 AM,57.2,48.2,72,30.35,2.5,North,-9999.0,-,N/A,,Haze,0,2012-12-01 16:15:00
10:35 AM,59.0,48.2,67,30.34,2.5,North,-9999.0,-,N/A,,Haze,0,2012-12-01 16:35:00
10:55 AM,59.0,48.2,67,30.34,2.0,North,-9999.0,-,N/A,,Haze,0,2012-12-01 16:55:00
11:15 AM,60.8,48.2,63,30.32,1.5,North,-9999.0,-,N/A,,Haze,0,2012-12-01 17:15:00
11:35 AM,62.6,48.2,59,30.31,8.0,North,-9999.0,-,N/A,,Scattered Clouds,0,2012-12-01 17:35:00
11:55 AM,64.4,48.2,56,30.30,5.0,North,-9999.0,-,N/A,,Haze,0,2012-12-01 17:55:00
12:15 PM,66.2,48.2,52,30.29,10.0,North,-9999.0,-,N/A,,Clear,0,2012-12-01 18:15:00
12:35 PM,66.2,48.2,52,30.28,10.0,North,-9999.0,-,N/A,,Clear,0,2012-12-01 18:35:00
12:55 PM,66.2,48.2,52,30.27,10.0,North,-9999.0,-,N/A,,Clear,0,2012-12-01 18:55:00
1:15 PM,66.2,46.4,49,30.27,10.0,North,-9999.0,-,N/A,,Clear,0,2012-12-01 19:15:00
1:35 PM,66.2,46.4,49,30.26,10.0,North,-9999.0,-,N/A,,Clear,0,2012-12-01 19:35:00
1:55 PM,68.0,46.4,46,30.26,10.0,North,-9999.0,-,N/A,,Partly Cloudy,0,2012-12-01 19:55:00
2:15 PM,68.0,46.4,46,30.26,6.0,North,-9999.0,-,N/A,,Haze,0,2012-12-01 20:15:00
2:35 PM,68.0,46.4,46,30.26,2.5,North,-9999.0,-,N/A,,Haze,0,2012-12-01 20:35:00
2:55 PM,68.0,46.4,46,30.26,10.0,North,-9999.0,-,N/A,,Partly Cloudy,0,2012-12-01 20:55:00
3:15 PM,66.2,46.4,49,30.25,1.8,North,-9999.0,-,N/A,,Haze,0,2012-12-01 21:15:00
3:35 PM,66.2,46.4,49,30.26,2.5,North,-9999.0,-,N/A,,Haze,0,2012-12-01 21:35:00
3:55 PM,66.2,46.4,49,30.25,1.8,North,-9999.0,-,N/A,,Haze,0,2012-12-01 21:55:00
4:15 PM,64.4,46.4,52,30.25,2.5,North,-9999.0,-,N/A,,Haze,0,2012-12-01 22:15:00
4:35 PM,60.8,46.4,59,30.25,3.0,North,-9999.0,-,N/A,,Haze,0,2012-12-01 22:35:00
4:55 PM,60.8,46.4,59,30.25,4.0,North,-9999.0,-,N/A,,Haze,0,2012-12-01 22:55:00
5:15 PM,57.2,46.4,67,30.26,4.0,North,-9999.0,-,N/A,,Haze,0,2012-12-01 23:15:00
5:35 PM,55.4,46.4,72,30.26,4.0,North,-9999.0,-,N/A,,Haze,0,2012-12-01 23:35:00
5:55 PM,53.6,44.6,72,30.26,4.0,North,-9999.0,-,N/A,,Haze,0,2012-12-01 23:55:00
6:15 PM,50.0,44.6,82,30.26,4.0,North,-9999.0,-,N/A,,Haze,0,2012-12-02 00:15:00
6:35 PM,50.0,44.6,82,30.26,4.0,North,-9999.0,-,N/A,,Haze,0,2012-12-02 00:35:00
6:55 PM,50.0,44.6,82,30.27,4.0,North,-9999.0,-,N/A,,Haze,0,2012-12-02 00:55:00
7:15 PM,50.0,44.6,82,30.27,3.0,North,-9999.0,-,N/A,,Haze,0,2012-12-02 01:15:00
7:35 PM,48.2,44.6,87,30.27,3.0,North,-9999.0,-,N/A,,Partly Cloudy,0,2012-12-02 01:35:00
7:55 PM,48.2,44.6,87,30.28,3.0,North,-9999.0,-,N/A,,Clear,0,2012-12-02 01:55:00
8:15 PM,46.4,44.6,93,30.28,4.0,North,-9999.0,-,N/A,,Scattered Clouds,0,2012-12-02 02:15:00
8:55 PM,46.4,41.0,81,30.28,4.0,North,-9999.0,-,N/A,,Scattered Clouds,0,2012-12-02 02:55:00
9:15 PM,46.4,41.0,81,30.28,4.0,North,-9999.0,-,N/A,,Mostly Cloudy,0,2012-12-02 03:15:00
9:35 PM,44.6,41.0,87,30.28,3.0,North,-9999.0,-,N/A,,Partly Cloudy,0,2012-12-02 03:35:00
9:55 PM,44.6,41.0,87,30.28,4.0,North,-9999.0,-,N/A,,Clear,0,2012-12-02 03:55:00
10:15 PM,44.6,41.0,87,30.28,4.0,North,-9999.0,-,N/A,,Partly Cloudy,0,2012-12-02 04:15:00
10:35 PM,44.6,41.0,87,30.28,4.0,North,-9999.0,-,N/A,,Scattered Clouds,0,2012-12-02 04:35:00
10:55 PM,44.6,41.0,87,30.28,3.0,North,-9999.0,-,N/A,,Scattered Clouds,0,2012-12-02 04:55:00
11:15 PM,44.6,39.2,81,30.29,4.0,North,-9999.0,-,N/A,,Haze,0,2012-12-02 05:15:00
11:55 PM,46.4,41.0,81,30.29,4.0,North,-9999.0,-,N/A,,Haze,0,2012-12-02 05:55:00